Location: Johnson City
(36.3130°N, 82.3540°W)
Time: 20:18:48
(UTC-05:00)

Hubble Space Telescope - Visible Passes

Search period start: 30 November 2021 00:00
Search period end: 10 December 2021 00:00
Orbit: 534 x 538 km, 28.5° (Epoch: 30 November)

Date Brightness Start Highest point End Pass type
(mag) Time Alt. Az. Time Alt. Az. Time Alt. Az.
30 Nov 2.2 05:35:52 24° SSW 05:36:43 26° S 05:40:09 10° SE visible
01 Dec 2.3 05:25:24 24° S 05:25:29 24° S 05:28:52 10° SE visible
02 Dec 2.6 05:14:56 22° S 05:14:56 22° S 05:17:31 10° SE visible
02 Dec 3.3 06:53:48 10° SW 06:54:47 11° SSW 06:55:45 10° S visible
03 Dec 3.0 05:04:28 17° SSE 05:04:28 17° SSE 05:06:08 10° SE visible
04 Dec 3.5 04:54:01 13° SSE 04:54:01 13° SSE 04:54:40 10° SSE visible
